Simultaneous Nadir Overpasses (SNOs) Predictions

Prediction of SNOs between GOES-16 and METOP-C Satellite Orbit:

Table of predicted SNOs for the next 14.0 days since TLE Epoch: 5/14/2022
Index Date Time (GOES-16) GOES-16 Lat,Lon METOP-C Lat,Lon Distance(km) Time Diff (sec)
1 05/15/2022 14:31:38 0.06, -75.22 -0.05, -74.78 50.99 80
2 05/17/2022 02:50:38 -0.05, -75.21 -0.96, -79.38 474.42 80
3 05/18/2022 02:27:17 -0.05, -75.22 0.14, -74.38 95.26 80
4 05/19/2022 14:46:07 0.04, -75.24 0.89, -78.93 421.02 80
5 05/20/2022 14:28:07 0.04, -75.25 -0.27, -73.95 149.04 80
6 05/22/2022 02:47:06 -0.03, -75.24 -0.79, -78.53 375.54 80
7 05/23/2022 02:23:47 -0.03, -75.25 0.37, -73.55 195.09 80
8 05/24/2022 14:42:36 0.03, -75.30 0.65, -78.10 319.39 80
9 05/25/2022 14:24:36 0.03, -75.31 -0.46, -73.10 251.93 80
10 05/27/2022 02:43:36 -0.03, -75.32 -0.54, -77.70 270.75 80
11 05/28/2022 02:20:16 -0.02, -75.34 0.56, -72.70 300.82 80
